When you browse on this site, cookies collect data to enhance your experience and personalize the content and advertising you see.
Visit our Privacy Policy to learn more. By continuing to use the site, you agree to this use of cookies and data.
  • In Spain
  • List of Countries
  • For 7 days
  • Water Temperature
  • Weather Map
  • Weather Widgets
  • user-avatar
    Login

    Hourly Weather Curico

    Today, 24 January, Friday

    Time Temperature Precipitation Wind Pressure Humidity
    00:00 +16°C° 0 mm 0 mps 742 mmHg 86%
    01:00 +15°C° 0 mm 0 mps 742 mmHg 89%
    02:00 +15°C° 0 mm 0 mps 742 mmHg 89%
    03:00 +14°C° 0 mm 0 mps 742 mmHg 89%
    04:00 +14°C° 0 mm 0 mps 741 mmHg 89%
    05:00 +16°C° 0 mm 0 mps 742 mmHg 80%
    06:00 +20°C° 0 mm 1 mps 742 mmHg 70%
    07:00 +22°C° 0 mm 1 mps 742 mmHg 61%
    08:00 +25°C° 0 mm 2 mps 742 mmHg 49%
    09:00 +28°C° 0 mm 2 mps 742 mmHg 37%
    10:00 +33°C° 0 mm 3 mps 742 mmHg 25%
    11:00 +35°C° 0 mm 3 mps 742 mmHg 19%
    12:00 +37°C° 0 mm 4 mps 742 mmHg 14%
    13:00 +40°C° 0 mm 4 mps 742 mmHg 8%
    14:00 +40°C° 0 mm 4 mps 742 mmHg 9%
    15:00 +40°C° 0 mm 5 mps 742 mmHg 10%
    16:00 +40°C° 0 mm 5 mps 742 mmHg 10%
    17:00 +34°C° 0 mm 4 mps 742 mmHg 16%
    18:00 +29°C° 0 mm 2 mps 742 mmHg 22%
    19:00 +25°C° 0 mm 1 mps 742 mmHg 28%
    20:00 +23°C° 0 mm 1 mps 742 mmHg 33%
    21:00 +21°C° 0 mm 1 mps 742 mmHg 37%
    22:00 +19°C° 0 mm 1 mps 742 mmHg 42%
    23:00 +16°C° 0 mm 0 mps 742 mmHg 45%

    Tomorrow, 25 January, Saturday

    Time Temperature Precipitation Wind Pressure Humidity
    00:00 +15°C° 0 mm 0 mps 742 mmHg 47%
    01:00 +14°C° 0 mm 0 mps 741 mmHg 50%
    02:00 +14°C° 0 mm 0 mps 741 mmHg 50%
    03:00 +13°C° 0 mm 0 mps 741 mmHg 50%
    04:00 +13°C° 0 mm 1 mps 741 mmHg 50%
    05:00 +16°C° 0 mm 1 mps 741 mmHg 44%
    06:00 +19°C° 0 mm 1 mps 742 mmHg 39%
    07:00 +21°C° 0 mm 1 mps 742 mmHg 33%
    08:00 +25°C° 0 mm 2 mps 742 mmHg 28%
    09:00 +28°C° 0 mm 2 mps 742 mmHg 22%
    10:00 +32°C° 0 mm 2 mps 742 mmHg 16%
    11:00 +35°C° 0 mm 3 mps 742 mmHg 14%
    12:00 +37°C° 0 mm 3 mps 742 mmHg 11%
    13:00 +39°C° 0 mm 3 mps 742 mmHg 9%
    14:00 +40°C° 0 mm 4 mps 742 mmHg 9%
    15:00 +40°C° 0 mm 4 mps 742 mmHg 9%
    16:00 +40°C° 0 mm 4 mps 742 mmHg 9%
    17:00 +35°C° 0 mm 3 mps 742 mmHg 15%
    18:00 +30°C° 0 mm 2 mps 742 mmHg 22%
    19:00 +26°C° 0 mm 1 mps 742 mmHg 28%
    20:00 +24°C° 0 mm 1 mps 743 mmHg 32%
    21:00 +22°C° 0 mm 1 mps 743 mmHg 37%
    22:00 +20°C° 0 mm 1 mps 743 mmHg 42%
    23:00 +17°C° 0 mm 0 mps 743 mmHg 45%

    Day after tomorrow, 26 January, Sunday

    Time Temperature Precipitation Wind Pressure Humidity
    00:00 +16°C° 0 mm 0 mps 742 mmHg 49%
    01:00 +15°C° 0 mm 0 mps 742 mmHg 52%
    02:00 +15°C° 0 mm 0 mps 742 mmHg 54%
    03:00 +14°C° 0 mm 0 mps 742 mmHg 55%
    04:00 +14°C° 0 mm 0 mps 743 mmHg 57%
    05:00 +16°C° 0 mm 0 mps 743 mmHg 53%
    06:00 +21°C° 0 mm 1 mps 743 mmHg 49%
    07:00 +23°C° 0 mm 1 mps 744 mmHg 45%
    08:00 +26°C° 0 mm 1 mps 744 mmHg 39%
    09:00 +29°C° 0 mm 2 mps 744 mmHg 33%
    10:00 +33°C° 0 mm 3 mps 744 mmHg 28%
    11:00 +35°C° 0 mm 3 mps 743 mmHg 24%
    12:00 +37°C° 0 mm 3 mps 743 mmHg 21%
    13:00 +39°C° 0 mm 3 mps 743 mmHg 17%
    14:00 +40°C° 0 mm 4 mps 743 mmHg 18%
    15:00 +40°C° 0 mm 4 mps 742 mmHg 19%
    16:00 +40°C° 0 mm 5 mps 742 mmHg 19%
    17:00 +36°C° 0 mm 4 mps 742 mmHg 26%
    18:00 +31°C° 0 mm 3 mps 742 mmHg 32%
    19:00 +28°C° 0 mm 2 mps 742 mmHg 39%
    20:00 +26°C° 0 mm 1 mps 742 mmHg 45%
    21:00 +24°C° 0 mm 1 mps 742 mmHg 52%
    22:00 +19°C° 0 mm 0 mps 742 mmHg 58%
    23:00 +19°C° 0 mm 0 mps 742 mmHg 61%

    27 January, Monday

    Time Temperature Precipitation Wind Pressure Humidity
    00:00 +18°C° 0 mm 0 mps 742 mmHg 63%
    01:00 +19°C° 0 mm 1 mps 741 mmHg 66%
    02:00 +19°C° 0 mm 1 mps 741 mmHg 67%
    03:00 +18°C° 0 mm 1 mps 741 mmHg 68%
    04:00 +16°C° 0 mm 1 mps 741 mmHg 69%
    05:00 +19°C° 0 mm 1 mps 741 mmHg 61%
    06:00 +21°C° 0 mm 1 mps 741 mmHg 54%
    07:00 +23°C° 0 mm 2 mps 742 mmHg 47%
    08:00 +26°C° 0 mm 2 mps 742 mmHg 39%
    09:00 +29°C° 0 mm 3 mps 742 mmHg 31%
    10:00 +34°C° 0 mm 3 mps 742 mmHg 23%
    11:00 +36°C° 0 mm 3 mps 741 mmHg 20%
    12:00 +38°C° 0 mm 3 mps 741 mmHg 17%
    13:00 +41°C° 0 mm 4 mps 741 mmHg 13%
    14:00 +41°C° 0 mm 4 mps 741 mmHg 13%
    15:00 +41°C° 0 mm 5 mps 741 mmHg 12%
    16:00 +41°C° 0 mm 5 mps 741 mmHg 11%
    17:00 +36°C° 0 mm 4 mps 741 mmHg 16%
    18:00 +31°C° 0 mm 3 mps 741 mmHg 20%
    19:00 +27°C° 0 mm 2 mps 741 mmHg 24%
    20:00 +24°C° 0 mm 1 mps 741 mmHg 29%
    21:00 +22°C° 0 mm 1 mps 741 mmHg 33%
    22:00 +18°C° 0 mm 0 mps 741 mmHg 38%
    23:00 +17°C° 0 mm 0 mps 741 mmHg 41%

    28 January, Tuesday

    Time Temperature Precipitation Wind Pressure Humidity
    00:00 +16°C° 0 mm 0 mps 740 mmHg 43%
    01:00 +15°C° 0 mm 0 mps 740 mmHg 46%
    02:00 +14°C° 0 mm 0 mps 740 mmHg 46%
    03:00 +15°C° 0 mm 1 mps 740 mmHg 47%
    04:00 +14°C° 0 mm 1 mps 740 mmHg 47%
    05:00 +16°C° 0 mm 1 mps 740 mmHg 44%
    06:00 +18°C° 0 mm 2 mps 740 mmHg 42%
    07:00 +20°C° 0 mm 2 mps 740 mmHg 39%
    08:00 +24°C° 0 mm 2 mps 740 mmHg 33%
    09:00 +28°C° 0 mm 2 mps 741 mmHg 27%
    10:00 +31°C° 0 mm 3 mps 741 mmHg 21%
    11:00 +34°C° 0 mm 3 mps 740 mmHg 18%
    12:00 +36°C° 0 mm 3 mps 740 mmHg 16%
    13:00 +38°C° 0 mm 3 mps 740 mmHg 13%
    14:00 +38°C° 0 mm 4 mps 740 mmHg 16%
    15:00 +38°C° 0 mm 6 mps 740 mmHg 18%
    16:00 +38°C° 0 mm 7 mps 740 mmHg 20%
    17:00 +33°C° 0 mm 5 mps 740 mmHg 30%
    18:00 +28°C° 0 mm 3 mps 740 mmHg 39%
    19:00 +24°C° 0 mm 1 mps 741 mmHg 48%
    20:00 +22°C° 0 mm 1 mps 741 mmHg 56%
    21:00 +20°C° 0 mm 1 mps 741 mmHg 63%
    22:00 +18°C° 0 mm 1 mps 741 mmHg 71%
    23:00 +16°C° 0 mm 0 mps 741 mmHg 72%

    29 January, Wednesday

    Time Temperature Precipitation Wind Pressure Humidity
    00:00 +15°C° 0 mm 0 mps 740 mmHg 74%
    01:00 +14°C° 0 mm 0 mps 740 mmHg 76%
    02:00 +15°C° 0 mm 1 mps 740 mmHg 77%
    03:00 +14°C° 0 mm 1 mps 740 mmHg 78%
    04:00 +13°C° 0 mm 1 mps 740 mmHg 78%
    05:00 +15°C° 0 mm 1 mps 740 mmHg 72%
    06:00 +16°C° 0 mm 2 mps 740 mmHg 66%
    07:00 +18°C° 0 mm 2 mps 740 mmHg 59%
    08:00 +21°C° 0 mm 2 mps 740 mmHg 50%
    09:00 +24°C° 0 mm 3 mps 741 mmHg 42%
    10:00 +27°C° 0 mm 3 mps 741 mmHg 33%
    11:00 +29°C° 0 mm 3 mps 741 mmHg 29%
    12:00 +33°C° 0 mm 3 mps 741 mmHg 25%
    13:00 +35°C° 0 mm 3 mps 741 mmHg 21%
    14:00 +34°C° 0 mm 4 mps 741 mmHg 21%
    15:00 +34°C° 0 mm 5 mps 741 mmHg 21%
    16:00 +34°C° 0 mm 6 mps 741 mmHg 21%
    17:00 +30°C° 0 mm 4 mps 741 mmHg 27%
    18:00 +26°C° 0 mm 3 mps 741 mmHg 32%
    19:00 +23°C° 0 mm 2 mps 742 mmHg 38%
    20:00 +21°C° 0 mm 1 mps 742 mmHg 43%
    21:00 +19°C° 0 mm 1 mps 742 mmHg 49%
    22:00 +16°C° 0 mm 1 mps 742 mmHg 55%
    23:00 +14°C° 0 mm 0 mps 742 mmHg 58%
    Show more